Theta_e
311 310 311 310 310 311 312 314 314 312 312 313 313 312 311 311 310 310 305 305 304 303 301 300 299 299 298 298 299 300 303 305 309 313 314 316 319 320 322 323 322 323 323 323
311 312 311 311 312 313 313 314 313 312 313 314 312 312 311 311 312 309 306 305 304 302 301 300 298 298 298 297 297 298 299 302 305 307 310 312 314 313 315 319 319 319 319 320
312 313 313 314 314 314 314 314 313 313 312 311 313 312 313 312 307 307 305 304 303 302 300 299 298 297 296 297 297 297 297 299 301 303 306 307 309 308 307 308 310 314 315 315
312 312 313 313 315 313 315 312 313 313 312 313 313 314 313 312 308 307 304 302 301 300 299 298 297 296 295 294 296 296 296 296 297 299 300 300 298 299 300 302 303 305 307 311
316 312 312 313 313 311 313 310 311 312 311 313 313 314 313 310 310 307 304 302 300 299 298 297 296 296 295 294 293 294 295 295 295 296 296 296 296 297 298 298 299 300 301 304
311 308 310 311 311 311 309 310 310 310 311 314 314 315 314 310 310 307 304 302 300 298 297 297 296 295 294 293 292 292 292 293 293 293 293 294 294 294 294 295 295 296 297 298
312 311 310 310 311 310 310 311 316 315 313 316 314 314 314 310 308 307 303 300 298 297 296 295 294 294 293 292 291 290 290 290 290 289 290 290 291 291 290 291 292 293 293 294
317 318 311 309 311 312 311 315 316 318 315 312 313 315 314 305 303 301 300 298 297 296 296 295 294 294 293 292 291 289 288 288 288 288 287 286 286 286 285 286 286 286 287 290
315 316 311 310 311 312 313 314 313 315 306 312 314 313 308 304 302 300 299 298 297 296 294 295 294 293 293 291 290 289 287 287 287 287 287 286 286 285 285 285 285 285 285 285
314 316 313 310 310 311 314 313 316 314 313 314 314 313 312 307 303 300 299 297 296 295 294 292 292 291 291 290 290 289 288 287 286 286 286 286 285 285 285 284 284 284 284 284
313 315 314 312 313 313 311 311 312 314 313 314 310 310 308 307 302 300 298 296 295 293 292 292 290 290 290 289 288 288 287 287 286 286 285 285 285 285 284 284 284 284 284 284
313 314 311 313 310 308 310 311 312 313 312 309 313 313 305 302 301 299 298 297 294 293 290 294 291 290 290 289 288 288 287 287 286 286 285 285 285 284 284 284 284 284 284 284
313 311 305 305 306 311 313 311 310 311 312 313 314 309 303 300 299 298 297 296 295 292 290 290 291 289 289 288 288 288 287 287 287 286 286 285 284 284 283 283 282 282 283 283
310 311 305 306 301 307 306 305 304 308 304 303 305 304 303 303 302 301 300 299 297 293 290 287 287 288 289 289 289 289 289 288 288 287 286 286 285 284 283 282 282 282 281 281
307 304 307 307 307 305 305 304 303 303 303 304 302 301 301 300 297 296 292 297 295 293 289 288 287 287 288 289 288 288 288 288 288 288 287 286 285 284 282 281 281 281 281 280
305 300 302 298 302 302 302 301 301 301 300 299 299 298 298 294 294 293 291 290 290 289 289 287 287 287 288 288 288 288 288 287 287 286 286 285 284 281 281 280 280 280 280 280
299 296 291 294 298 296 293 296 296 297 297 297 297 296 290 294 293 289 289 290 289 289 289 288 286 287 288 288 288 287 286 286 285 284 283 281 280 280 280 279 279 278 278 277
298 293 288 287 286 289 293 293 294 295 294 292 292 288 288 289 288 289 288 288 288 289 288 288 288 287 287 287 286 285 284 283 282 280 278 278 278 278 277 276 275 274 274 274
297 296 289 290 283 289 293 293 293 293 291 290 290 290 289 288 288 287 288 289 288 288 288 287 288 288 286 285 283 282 281 279 277 276 276 276 275 273 272 271 270 270 270 270
293 295 294 279 289 288 290 292 291 290 291 286 285 287 286 288 286 285 287 288 288 288 288 287 287 285 284 281 280 279 277 275 274 274 273 271 270 269 269 268 267 267 267 267
283 282 294 294 288 287 289 288 290 287 289 283 286 286 287 287 286 287 287 286 288 288 287 286 284 282 280 279 278 276 274 273 272 271 269 268 267 266 266 265 265 265 265 265
289 286 284 280 280 289 289 289 290 288 290 288 288 288 288 288 287 287 286 286 286 286 284 282 281 280 278 277 275 272 272 271 269 268 267 266 266 265 264 264 264 263 263 264
288 289 285 288 287 289 288 288 289 289 288 289 288 288 287 288 287 287 286 285 285 284 282 280 279 277 275 273 272 270 270 268 267 266 266 265 265 264 264 263 263 263 263 264
288 288 288 287 288 289 288 288 288 288 288 288 287 287 287 287 286 286 285 284 282 280 279 278 276 275 272 271 269 268 267 267 266 265 265 264 264 263 263 263 262 262 262 263
289 288 287 288 289 288 288 288 288 287 287 287 286 285 286 286 286 285 284 281 280 278 276 275 274 271 270 269 268 268 266 266 265 264 264 263 263 263 262 262 262 263 264 264
291 291 290 290 290 289 290 289 288 288 288 287 286 286 285 285 285 282 279 279 277 275 273 272 270 269 268 267 267 267 266 265 264 263 263 263 262 262 262 262 262 263 265 266
Wind_Speed
3 4 6 11 10 5 3 3 4 5 9 3 7 5 9 9 9 6 9 9 11 12 14 23 28 32 33 35 33 30 28 25 18 15 10 6 5 3 3 9 14 16 18 21
4 5 13 6 5 7 6 4 6 5 6 1 8 8 11 11 5 7 13 9 9 8 12 19 24 29 33 32 33 32 30 27 25 21 17 11 9 11 8 2 7 4 9 16
8 8 7 7 5 5 3 4 5 7 5 4 3 7 7 2 11 13 11 11 10 11 11 12 20 24 29 33 33 33 31 28 26 22 16 15 10 11 14 12 7 7 7 7
6 7 6 8 6 6 3 4 6 4 2 3 3 5 6 1 8 8 7 8 8 10 11 12 16 22 27 29 29 32 34 34 30 24 21 22 23 18 18 15 10 8 7 9
6 6 4 3 6 7 8 3 2 3 3 2 5 1 7 9 4 6 8 9 8 8 9 10 15 20 23 24 27 28 30 31 32 32 28 25 23 19 17 17 15 14 11 7
6 1 3 6 2 3 4 2 3 3 3 1 8 6 5 5 7 6 7 8 9 8 7 12 18 19 21 21 23 25 26 28 28 29 29 29 28 25 24 22 21 19 16 14
2 5 2 3 2 4 3 4 2 3 1 6 3 2 8 3 5 10 13 10 8 8 7 7 11 16 19 22 23 24 25 27 27 28 27 26 26 26 26 26 24 24 21 20
4 4 8 3 5 6 6 5 4 5 3 5 6 5 4 8 16 16 11 8 8 7 6 7 11 13 14 15 16 18 21 23 23 23 25 25 24 24 24 24 23 23 23 22
5 4 2 2 1 6 4 4 3 2 1 2 4 4 5 8 11 11 8 7 7 6 6 6 9 10 10 11 12 15 18 19 20 20 20 21 21 21 21 21 22 22 23 23
2 1 2 2 2 3 3 5 2 2 1 5 5 4 4 5 9 7 6 7 6 5 5 5 9 10 9 9 9 9 12 15 15 15 15 16 16 16 18 20 22 23 23 23
3 4 4 4 5 5 1 1 2 4 4 4 2 5 5 7 10 10 9 8 9 8 6 5 7 10 8 7 7 6 6 10 12 12 14 16 16 18 18 21 24 25 24 24
1 4 4 8 4 5 6 6 6 3 5 3 3 9 3 7 10 9 10 10 8 7 7 6 10 9 8 7 6 6 5 5 7 8 9 14 16 21 22 25 25 27 26 26
5 1 2 9 4 3 3 2 4 3 2 7 6 6 2 4 5 6 8 8 6 6 7 7 9 9 8 7 4 3 5 7 8 12 15 18 22 26 25 26 27 26 27 28
5 3 7 9 4 4 2 4 2 4 3 3 10 15 19 9 7 6 8 7 7 8 8 6 6 7 5 3 1 2 6 10 13 16 19 22 26 32 33 31 32 33 32 33
5 5 3 5 4 3 4 8 7 7 11 7 20 17 19 14 5 2 3 3 7 6 7 7 7 10 9 6 6 6 7 9 13 17 20 22 27 33 34 35 38 39 38 37
2 2 2 4 4 4 7 15 11 13 15 16 19 23 17 1 2 4 6 6 5 5 6 7 8 13 13 12 10 7 5 7 10 13 20 24 30 33 34 36 37 36 34 34
5 5 3 5 2 3 7 14 15 10 11 7 9 10 3 4 5 4 3 2 4 4 4 5 8 14 12 9 6 4 5 6 10 14 20 25 26 29 31 32 34 34 35 36
6 6 3 4 3 1 8 3 5 8 7 5 2 4 6 5 5 4 5 4 6 5 6 6 6 3 9 6 2 2 3 8 15 20 22 22 21 23 28 33 33 34 34 35
6 5 1 4 5 6 12 6 6 4 7 6 6 4 7 5 1 3 4 1 4 5 7 7 6 9 7 4 2 4 11 15 17 20 18 19 24 31 32 30 30 30 32 34
7 5 5 3 6 9 6 4 5 5 9 8 6 7 7 4 1 4 5 6 7 10 8 9 8 8 6 0 6 12 15 17 17 15 19 21 24 25 28 29 31 31 30 33
3 2 15 14 6 7 6 6 4 5 8 3 6 6 6 5 6 6 5 7 12 10 10 10 8 6 2 5 11 14 17 17 16 22 23 23 24 26 28 30 29 32 32 32
7 7 5 2 1 8 8 2 7 7 3 5 6 7 6 7 8 7 8 7 10 12 12 8 5 2 3 7 11 14 15 17 22 23 25 28 29 28 26 29 31 29 30 31
2 8 5 9 7 5 8 7 8 6 5 6 7 9 10 8 6 8 7 7 10 14 11 7 3 3 4 8 11 13 17 20 22 24 27 29 28 27 26 26 28 27 27 27
5 3 3 4 6 8 9 7 7 8 8 8 9 10 7 9 8 8 7 6 9 13 9 5 4 7 8 10 12 15 18 19 21 25 27 24 24 27 24 26 26 26 27 26
6 5 5 6 10 7 8 9 13 9 9 8 7 8 10 9 9 9 6 6 11 11 7 5 5 8 11 13 16 18 17 18 21 24 23 22 21 23 24 23 27 27 29 29
11 18 11 13 15 10 12 9 6 9 11 11 8 6 7 8 9 5 5 11 10 7 4 4 7 8 12 17 18 17 16 16 19 23 20 22 23 22 22 25 27 30 29 31
Wind_Direction
216 113 197 217 205 216 287 256 258 268 277 327 279 265 266 271 283 27 96 92 81 68 61 48 43 44 41 42 40 40 45 48 57 53 35 14 23 32 239 234 246 250 248 239
59 222 226 228 223 213 224 243 279 285 278 334 280 288 288 270 300 131 127 107 100 88 63 49 44 41 41 39 42 44 43 46 52 57 54 60 61 60 47 285 264 256 247 238
173 217 185 179 248 259 238 219 241 232 315 310 338 301 263 325 85 87 85 97 85 79 72 56 45 42 45 45 44 47 47 46 45 52 56 53 59 45 29 18 356 284 298 283
226 245 254 277 234 164 255 219 219 231 80 227 46 280 281 146 91 80 79 76 82 81 72 66 53 46 44 46 50 52 50 50 47 46 54 57 49 38 28 31 25 350 317 293
239 168 176 169 212 151 221 106 192 228 215 75 268 254 259 108 146 137 123 108 92 84 87 79 67 58 55 52 49 51 51 49 48 50 49 50 50 43 39 30 19 15 12 340
233 234 195 205 157 153 143 64 330 59 109 330 233 180 265 177 175 150 123 104 98 89 78 72 68 61 56 51 50 51 54 51 48 48 46 49 49 42 36 30 23 9 5 13
203 219 195 160 122 17 82 86 318 348 16 217 171 187 238 40 127 136 122 110 99 88 74 67 62 51 47 45 42 43 49 50 48 47 47 45 45 41 40 36 32 24 13 2
190 290 164 181 180 183 174 168 160 237 235 263 346 263 298 71 84 94 95 102 93 90 94 88 78 70 58 51 50 50 49 50 49 50 48 45 46 46 42 37 33 30 23 17
185 242 44 45 111 139 187 173 180 126 71 54 227 285 98 80 90 99 112 108 112 106 98 97 88 84 78 75 63 55 48 47 45 42 44 43 39 31 29 30 29 24 20 16
172 259 253 187 80 344 142 157 92 29 228 243 274 262 211 174 143 136 140 136 135 127 129 127 119 113 95 87 80 58 57 51 45 44 36 28 24 21 16 11 10 9 6 3
125 136 256 137 181 161 90 223 212 171 177 202 220 256 181 160 162 165 176 171 170 171 165 155 131 121 111 98 82 84 55 49 44 36 30 15 6 7 359 354 351 350 348 348
179 161 213 230 272 167 185 212 184 184 261 251 225 257 140 155 171 170 186 188 189 170 160 150 142 146 147 139 131 97 79 52 36 20 15 16 359 354 348 344 342 339 337 337
179 199 359 329 26 32 144 130 107 94 104 240 248 256 154 156 187 221 200 210 176 166 180 167 160 159 151 145 128 70 38 24 6 350 346 347 350 350 344 337 334 335 331 330
115 173 177 223 175 111 275 271 160 150 163 238 246 274 277 261 233 245 241 222 198 184 176 166 171 174 180 189 233 291 322 333 334 330 327 329 335 337 333 330 329 329 328 324
144 204 225 268 297 113 225 256 267 219 245 228 267 268 268 287 282 216 159 166 191 186 182 192 190 199 211 224 243 259 278 298 310 307 311 316 320 323 323 324 325 324 322 319
147 244 108 301 259 266 264 262 257 252 257 255 256 263 274 219 206 190 183 176 172 153 205 195 193 200 206 207 222 231 264 289 291 294 301 308 310 316 317 317 317 315 313 312
140 129 88 260 261 39 310 250 240 232 229 225 244 251 166 226 222 165 206 197 186 208 208 197 219 222 213 194 201 252 288 287 296 305 306 308 310 309 310 311 311 311 309 307
141 120 123 217 47 270 243 276 204 203 236 210 149 222 201 188 172 200 249 253 256 236 227 239 238 187 167 173 190 213 291 309 315 316 316 315 312 309 307 308 308 305 304 302
179 151 164 170 206 306 297 236 205 188 273 187 196 205 184 170 122 290 278 200 196 225 246 244 198 159 160 154 136 325 324 326 325 321 316 311 311 309 309 306 304 302 301 298
172 178 175 120 186 211 236 155 142 118 275 218 179 189 169 134 154 243 248 243 249 253 248 188 171 149 147 121 324 329 333 329 328 317 312 310 308 306 304 302 301 299 295 292
115 70 209 224 229 279 238 208 147 111 259 206 176 179 173 183 199 231 239 257 254 253 179 162 154 148 151 312 323 331 329 326 317 312 314 313 311 308 308 304 300 298 296 294
157 169 204 106 114 269 182 77 166 213 186 175 184 193 211 228 244 243 248 242 241 183 172 173 173 205 298 321 330 331 323 319 318 319 317 318 320 319 310 306 302 299 296 293
246 201 179 185 205 213 191 201 219 168 163 200 196 225 216 238 251 243 244 243 197 192 188 193 217 274 311 330 334 328 322 322 323 322 322 323 323 317 312 303 302 300 297 294
266 116 212 83 219 222 217 235 233 203 211 222 214 227 213 229 240 238 236 200 182 192 192 226 282 309 326 334 327 325 323 326 326 326 325 319 311 312 309 310 300 296 294 294
221 152 218 256 251 264 263 248 254 227 227 239 231 215 222 218 240 230 221 195 184 184 183 234 277 304 315 324 323 325 328 333 332 329 318 312 310 304 306 303 296 293 292 292
230 241 240 250 252 226 250 244 229 217 236 236 231 241 238 212 228 183 186 182 182 178 208 278 299 307 314 320 321 323 335 338 335 323 317 313 308 307 308 304 300 302 301 304